Simultaneous Nadir Overpasses (SNOs) Predictions

Prediction of SNOs between GOES-15 and NOAA-20 Satellite Orbit:

Table of predicted SNOs for the next 14.0 days since TLE Epoch: 10/24/2020
Index Date Time (GOES-15) GOES-15 Lat,Lon NOAA-20 Lat,Lon Distance(km) Time Diff (sec)
1 10/24/2020 21:43:04 0.14,-128.24 0.86,-125.09 358.78 80
2 10/26/2020 10:07:33 -0.13,-128.22 0.34,-130.36 243.92 80
3 10/27/2020 09:46:08 -0.14,-128.20 -0.65,-125.83 269.95 80
4 10/28/2020 22:10:45 0.13,-128.16 -0.53,-131.14 339.13 80
5 10/29/2020 21:49:21 0.13,-128.14 0.46,-126.60 174.32 80
6 10/31/2020 10:13:49 -0.12,-128.11 0.74,-131.87 429.20 80
7 11/01/2020 09:52:26 -0.13,-128.09 -0.31,-127.35 84.21 80
8 11/03/2020 21:58:18 0.11,-128.01 0.08,-128.12 12.77 80
9 11/04/2020 21:36:54 0.13,-127.98 1.13,-123.60 499.70 80
10 11/06/2020 10:01:22 -0.11,-127.93 0.07,-128.87 105.63 80
